Miscellaneous Local Product
Issued by NWS North Platte, NE

Home | Current Version | Previous Version | Graphics & Text | Print | Product List | Glossary On
Versions: 1 2 3 4 5 6 7 8 9 10 11 12 13 14 15 16 17 18 19 20 21 22 23 24 25 26 27 28 29 30 31 32 33 34 35 36 37 38 39 40 41 42 43 44 45 46 47 48 49 50
044
AXUS43 KLBF 231210
MISLBF


WESTERN AND NORTH CENTRAL NEBRASKA HOURLY WEATHER ROUNDUP
NATIONAL WEATHER SERVICE NORTH PLATTE NE
700 AM CDT WED AUG 23 2017

NOTE: "FAIR" INDICATES FEW OR NO CLOUDS BELOW 12,000 FEET WITH NO
SIGNIFICANT WEATHER AND/OR OBSTRUCTIONS TO VISIBILITY.

NOTE: STATIONS NOT REPORTING VARIABLES SUCH AS SKY/WEATHER OR
PRESSURE ARE PROVIDED BY RAWS AND APRS NETWORKS AND ARE NOT UNDER
NATIONAL WEATHER SERVICE QUALITY CONTROL.

...OBSERVATIONS IN AND NEAR THE EASTERN PANHANDLE OF NEBRASKA...

CITY           SKY/WX    TMP DP  RH WIND       PRES   REMARKS
PINE RIDGE     CLEAR     61  51  70 SW6       30.09S
GORDON         FAIR      60  48  65 CALM      30.11S
CHADRON        CLEAR     58  51  78 S5        30.07S
ALLIANCE       CLEAR     54  48  80 SE7       30.12S
SIDNEY         CLEAR     56  52  86 S14       30.15S
$$

...OBSERVATIONS IN NORTHERN NEBRASKA AND FAR SOUTHERN SOUTH DAKOTA...

CITY           SKY/WX    TMP DP  RH WIND       PRES   REMARKS
WINNER         FAIR      61  54  77 S7        30.09S
VALENTINE      CLEAR     58  50  75 SW5       30.10S
THEDFORD       CLEAR     61  51  71 S10       30.15R
AINSWORTH      CLEAR     59  53  81 SW10      30.12S
O`NEILL        MOCLDY    56  55  93 S6        30.15R
ORD            CLEAR     54  51  90 SE3       30.14S
BROKEN BOW     CLEAR     56  52  86 S6        30.16R
VALENTINE NWR    N/A     57  53  85 S7          N/A
HALSEY           N/A     60  50  69 S9          N/A
BUTTE            N/A     56  51  85 S6          N/A
CHAMBERS         N/A     57  53  86 SW3         N/A
EWING            N/A     55  52  90 CALM        N/A
$$

...OBSERVATIONS IN SOUTHWEST NEBRASKA AND FAR NORTHEAST COLORADO...

CITY           SKY/WX    TMP DP  RH WIND       PRES   REMARKS
WRAY           FAIR      55  48  76 SE8       30.18S
HOLYOKE        FAIR      55  50  82 S10       30.17F
IMPERIAL       CLEAR     57  47  69 S12       30.18S
OGALLALA       CLEAR     58  50  74 CALM      30.17R
NORTH PLATTE   CLEAR     59  51  75 S7        30.17S
MCCOOK         CLEAR     55  50  83 S5        30.17F
LEXINGTON      CLEAR     57  51  82 S6        30.17F
STAPLETON        N/A     54  50  87 CALM        N/A
GOTHENBURG       N/A     60  47  63 S6          N/A
CALLAWAY         N/A     55  52  91 S9          N/A
$$

...OBSERVATIONS IN CENTRAL LINCOLN COUNTY AREA...

CITY           SKY/WX    TMP DP  RH WIND       PRES   REMARKS
N.P. AIRPORT   CLEAR     59  51  75 S7        30.17S
N.P. DOWNTOWN    N/A     59  51  75 CALM        N/A
N.P. SOUTHEAST   N/A     58  50  75 S3          N/A
N.P. HILLCREST   N/A     58  51  79 S5          N/A
$$

...SOME OBSERVATIONS FROM AROUND THE REGION...

CITY           SKY/WX    TMP DP  RH WIND       PRES   REMARKS
DENVER         CLOUDY    66  47  50 SW9       30.18S
LIMON          CLEAR     54  53  97 SE9       30.24S
ASPEN          CLOUDY    52  43  71 CALM      30.41R
LARAMIE        CLOUDY    48  38  68 S10       30.31F
CASPER         CLEAR     49  38  65 W3        30.18S
CHEYENNE       CLEAR     57  40  52 W7        30.22S
SCOTTSBLUFF    CLEAR     56  52  86 E6        30.12R
GRAND ISLAND   CLEAR     57  53  86 S8        30.17S
OMAHA          CLEAR     59  54  83 CALM      30.16S
SIOUX FALLS    PTCLDY    51  50  96 CALM      30.15R
PIERRE         CLEAR     58  52  80 SE12      30.05S
RAPID CITY     CLEAR     52  47  83 CALM      30.05S
BISMARCK       CLEAR     49  46  90 NE6       30.08S
KANSAS CITY    PTCLDY    56  52  86 N5        30.16S
HILL CITY      CLEAR     52  49  89 CALM      30.20R
WICHITA        PTCLDY    60  54  80 NE7       30.16S
DODGE CITY       N/A     52  47  83 SE7       30.20S
OKLAHOMA CITY  CLOUDY    70  68  93 NE13      30.09R
DALLAS         CLOUDY    76  72  87 N3        30.01F
AMARILLO       CLOUDY    66  66 100 E8        30.21R
$$




USA.gov is the U.S. government's official web portal to all federal, state and local government web resources and services.